JH5HTX-13 Weather Reports


time (UTC)temp
C
wind
direction
speed
KPH
gust
KPH
rain 1hr
cm
rain 24hr
cm
rain mn
cm
humidity
%
barometer
mb
20260505062103 22 0 0.0 0.0 0.00 0.00 0.46 47 1018.1
20260505060603 21 45 0.0 0.0 0.00 0.00 0.46 50 1018.2
20260505055103 21 22 0.0 0.0 0.00 0.15 0.46 49 1018.4
20260505053603 21 36 0.0 0.0 0.00 0.15 0.46 52 1018.5
20260505052103 21 356 0.0 0.0 0.00 0.15 0.46 54 1018.7
20260505050603 20 315 0.0 0.0 0.00 0.15 0.46 54 1019.0
20260505040602 19 0 0.0 0.0 0.00 0.15 0.46 57 1019.4
20260505035102 19 332 0.0 0.0 0.00 0.15 0.46 57 1019.6
20260505033602 19 315 0.0 0.0 0.00 0.15 0.46 59 1019.7
20260505032102 19 315 0.0 0.0 0.00 0.15 0.46 58 1019.9
20260505030602 19 315 0.0 0.0 0.00 0.15 0.46 57 1020.0
20260505025330 19 22 0.0 0.0 0.00 0.15 0.46 57 1020.1
20260505023830 19 315 0.0 0.0 0.00 0.15 0.46 56 1020.3
20260505022330 19 22 0.0 0.0 0.00 0.15 0.46 49 1020.5
20260505020829 18 36 0.0 0.0 0.00 0.15 0.46 50 1020.4
20260505015329 18 24 0.0 0.0 0.00 0.15 0.46 52 1020.6
20260505013829 18 22 0.0 0.0 0.00 0.15 0.46 56 1020.6
20260505012329 17 22 0.0 0.0 0.00 0.15 0.46 59 1020.7
20260505010829 17 22 0.0 0.0 0.00 0.15 0.46 62 1020.8
20260505005329 16 44 0.0 0.0 0.00 0.15 0.46 64 1021.0
20260505003829 16 45 0.0 0.0 0.00 0.15 0.46 67 1021.1
20260505002329 15 22 0.0 0.0 0.00 0.15 0.46 68 1021.2
20260505000829 15 45 0.0 0.0 0.00 0.15 0.46 71 1021.0
20260504235328 15 45 0.0 0.0 0.00 0.15 0.46 74 1021.1
20260504233828 14 68 0.0 0.0 0.00 0.15 0.46 75 1021.1
20260504232328 14 112 0.0 0.0 0.00 0.15 0.46 79 1021.2
20260504230828 13 112 0.0 0.0 0.00 0.15 0.46 79 1021.2
20260504225328 13 180 0.0 0.0 0.00 0.15 0.46 79 1021.2
20260504223828 12 202 0.0 0.0 0.00 0.15 0.46 81 1021.2
20260504222328 12 190 0.0 0.0 0.00 0.15 0.46 84 1021.1
20260504220828 11 202 0.0 0.0 0.00 0.15 0.46 85 1021.1
20260504215328 10 202 0.0 0.0 0.00 0.15 0.46 88 1020.9
20260504213828 10 248 0.0 0.0 0.00 0.15 0.46 88 1020.8
20260504212327 9 248 0.0 0.0 0.00 0.15 0.46 89 1020.8
20260504210827 9 248 0.0 0.0 0.00 0.15 0.46 88 1020.6
20260504205327 8 248 0.0 0.0 0.00 0.15 0.46 88 1020.3
20260504203827 8 248 0.0 0.0 0.00 0.15 0.46 88 1020.1
20260504202327 8 248 0.0 0.0 0.00 0.15 0.46 88 1020.0
20260504200827 8 248 0.0 0.0 0.00 0.15 0.46 87 1019.8
20260504195327 9 248 0.0 0.0 0.00 0.15 0.46 87 1019.6
20260504193827 9 248 0.0 0.0 0.00 0.15 0.46 87 1019.5
20260504192327 9 248 0.0 0.0 0.00 0.15 0.46 86 1019.2
20260504190827 9 248 0.0 0.0 0.00 0.15 0.46 86 1019.2
20260504185326 9 248 0.0 0.0 0.00 0.15 0.46 86 1019.0
20260504183826 10 248 0.0 0.0 0.00 0.15 0.46 86 1018.9
20260504182326 10 248 0.0 0.0 0.00 0.15 0.46 86 1018.8
20260504180826 10 248 0.0 0.0 0.00 0.15 0.46 86 1018.7
20260504175326 10 248 0.0 0.0 0.00 0.15 0.46 86 1018.6
20260504173826 10 248 0.0 0.0 0.00 0.15 0.46 86 1018.5
20260504172326 10 248 0.0 0.0 0.00 0.15 0.46 85 1018.4
20260504170826 10 248 0.0 0.0 0.00 0.15 0.46 84 1018.5
20260504150825 11 248 0.0 0.0 0.00 0.15 0.46 80 1018.2